User: anonymous
Location: Laverne
(36.7100°N, 99.8930°W)
Time: 13:55:30
(UTC-05:00)
Language:

Iridium 32 - Orbit

View from above orbital plane
View from above orbital plane
View from above satellite
View from above satellite

Ground track
Ground track

The orbit data is extracted from the following two-line orbital elements,

1 24945U 97051B   14238.90240811  .00000340  00000-0  11427-3 0  9714
2 24945 086.4007 355.6728 0002299 113.0606 247.0832 14.34218283887461
Epoch (UTC): 26 August 2014 21:39:28
Eccentricity: 0.0002299
inclination: 86.4007°
perigee height: 776 km
apogee height: 779 km
right ascension of ascending node: 355.6728°
argument of perigee: 113.0606°
revolutions per day: 14.34218283
mean anomaly at epoch: 247.0832°
orbit number at epoch: 88746

The dashed part of the orbit path shows where the satellite is in the earth's shadow,  

DLR